TimeMDT,TemperatureF,Dew PointF,Humidity,Sea Level PressureIn,VisibilityMPH,Wind Direction,Wind SpeedMPH,Gust SpeedMPH,PrecipitationIn,Events,Conditions,WindDirDegrees,DateUTC
12:53 AM,48.0,33.1,56,29.80,10.0,South,8.1,-,N/A,,Clear,190,2013-05-26 06:53:00
1:53 AM,50.0,32.0,50,29.79,10.0,South,8.1,-,N/A,,Clear,180,2013-05-26 07:53:00
2:53 AM,48.9,30.9,50,29.78,10.0,South,9.2,-,N/A,,Clear,190,2013-05-26 08:53:00
3:53 AM,52.0,30.9,45,29.78,10.0,SSW,10.4,-,N/A,,Clear,200,2013-05-26 09:53:00
4:53 AM,52.0,30.9,45,29.78,10.0,South,10.4,-,N/A,,Clear,190,2013-05-26 10:53:00
5:53 AM,54.0,30.0,40,29.78,10.0,SSW,8.1,-,N/A,,Clear,200,2013-05-26 11:53:00
6:53 AM,53.1,34.0,48,29.78,10.0,South,9.2,-,N/A,,Clear,190,2013-05-26 12:53:00
7:53 AM,55.9,34.0,44,29.80,10.0,SSW,6.9,-,N/A,,Partly Cloudy,200,2013-05-26 13:53:00
8:53 AM,59.0,34.0,39,29.80,10.0,SSW,3.5,-,N/A,,Overcast,200,2013-05-26 14:53:00
9:53 AM,62.1,32.0,32,29.83,10.0,Calm,Calm,-,N/A,,Mostly Cloudy,0,2013-05-26 15:53:00
10:53 AM,64.9,30.0,27,29.84,10.0,WNW,10.4,-,N/A,,Mostly Cloudy,290,2013-05-26 16:53:00
11:53 AM,68.0,37.0,32,29.82,10.0,NW,4.6,-,N/A,,Partly Cloudy,310,2013-05-26 17:53:00
12:53 PM,71.1,37.9,30,29.81,10.0,WNW,10.4,18.4,N/A,,Clear,290,2013-05-26 18:53:00
1:53 PM,73.0,34.0,24,29.79,10.0,WNW,12.7,-,N/A,,Clear,290,2013-05-26 19:53:00
2:53 PM,71.1,33.1,25,29.79,10.0,West,8.1,-,N/A,,Mostly Cloudy,260,2013-05-26 20:53:00
3:53 PM,70.0,34.0,27,29.77,10.0,WNW,5.8,-,N/A,,Overcast,300,2013-05-26 21:53:00
4:53 PM,73.9,35.1,24,29.74,10.0,South,10.4,-,N/A,,Scattered Clouds,180,2013-05-26 22:53:00
5:31 PM,69.8,37.4,31,29.87,10.0,NW,11.5,-,N/A,,Partly Cloudy,310,2013-05-26 23:31:00
5:53 PM,66.9,37.9,34,29.76,10.0,WNW,17.3,23.0,N/A,,Scattered Clouds,290,2013-05-26 23:53:00
6:53 PM,63.0,39.9,43,29.78,10.0,NW,13.8,-,N/A,,Scattered Clouds,310,2013-05-27 00:53:00
7:53 PM,62.1,39.0,43,29.82,10.0,West,24.2,33.4,N/A,,Overcast,270,2013-05-27 01:53:00
8:53 PM,55.0,39.9,57,29.88,10.0,West,18.4,33.4,N/A,,Mostly Cloudy,270,2013-05-27 02:53:00
9:53 PM,52.0,39.0,61,29.91,10.0,West,13.8,21.9,N/A,,Partly Cloudy,260,2013-05-27 03:53:00
10:53 PM,51.1,41.0,68,29.93,10.0,South,6.9,-,N/A,,Clear,180,2013-05-27 04:53:00
11:53 PM,46.9,39.0,74,29.92,10.0,South,9.2,-,N/A,,Clear,180,2013-05-27 05:53:00